Tracking 35237 objects as of 6-Sep-2026
HD Live streaming from Space Station
objects crossing your sky now

COSMOS 1813 DEB


COSMOS 1813 DEB is no longer on orbit


NORAD ID: 18061
Int'l Code: 1987-004FQ
Launch date: January 15, 1987
Source: Commonwealth of Independent States (former USSR) (CIS)
Launch site: PLESETSK MISSILE AND SPACE COMPLEX (PKMTR)
Decay date: 1987-07-23

Note: This is SATELLITE DEBRIS
Your satellite tracking list
Your tracking list is empty




NASA's NSSDC Master Catalog

Two Line Element Set (TLE):
1 18061U 87004 FQ 87202.05305056  .01821559 +27276-5 +87091-3 0  9996
2 18061 072.8043 189.1367 0017045 189.9551 170.1357 16.20828379023085
Source of the keplerian elements: AFSPC